Location: Zagreb
(45.8000°N, 16.0000°E)
Time: 20:08:53
(UTC+01:00)

CUTE-I - Pass Details

Date: 01 November 2020
Orbit: 811 x 824 km, 98.7° (Epoch: 01 December)

Event Time Altitude Azimuth Distance (km) Brightness Sun altitude
Rises 17:33:51 0° 173° (S) 3,318 ? -9.5°
Reaches altitude 10° 17:36:12 10° 176° (S) 2,391 ? -9.9°
Maximum altitude 17:41:27 65° 258° (WSW) 893 ? -10.8°
Drops below altitude 10° 17:46:45 10° 340° (NNW) 2,412 ? -11.7°
Sets 17:49:08 0° 344° (NNW) 3,350 ? -12.1°
